Regional Weather Roundup
Issued by NWS

Home | Current Version | Previous Version | Text Only | Print | Product List | Glossary On
Versions: 1 2 3 4 5 6 7 8 9 10 11 12 13 14 15 16 17 18 19 20 21 22 23 24 25 26 27
000
ASUS43 KDMX 151807
RWRIA

WEATHER ROUNDUP FOR IOWA
NATIONAL WEATHER SERVICE DES MOINES IA
100 PM CDT TUE APR 15 2014

NOTE: "FAIR" INDICATES FEW OR NO CLOUDS BELOW 12,000 FEET WITH NO
SIGNIFICANT WEATHER AND/OR OBSTRUCTIONS TO VISIBILITY.

* - THESE STATIONS ARE NOT NWS STATIONS...THUS NOT UNDER NWS
QUALITY CONTROL.  THEY ALSO DO NOT REPORT WEATHER SUCH
AS PRECIPITATION OR FOG.

IAZ001>003-012>014-020>022-031>034-043>046-151900-
   NORTHWEST IOWA

CITY           SKY/WX    TMP DP  RH WIND       PRES   REMARKS
CARROLL *      MOSUNNY   34  21  60 VRB3      30.15F
CHEROKEE *     SUNNY     37  19  48 S3        30.12F
DENISON *      MOSUNNY   37  21  52 VRB6G12   30.12F WCI  33
LE MARS *      SUNNY     37  19  48 S10       30.09F WCI  30
ORANGE CITY *  SUNNY     36  16  44 S12G18    30.08F WCI  27
SHELDON *      SUNNY     36  14  41 S14       30.08F WCI  27
SIOUX CITY     SUNNY     40  23  50 S12       30.10F WCI  33
6HR MIN TEMP:  20; 6HR MAX TEMP:  40;

SPENCER        SUNNY     33  13  43 E7        30.11F WCI  27
6HR MIN TEMP:  13; 6HR MAX TEMP:  33;

STORM LAKE *   SUNNY     32  19  59 SE5G14    30.12F WCI  27
$$

IAZ055>058-069>071-079>083-090>094-151900-
   SOUTHWEST IOWA

CITY           SKY/WX    TMP DP  RH WIND       PRES   REMARKS
ATLANTIC *     SUNNY     39  21  48 VRB5G13   30.14F
AUDUBON *      SUNNY     39  16  38 S6        30.15F WCI  35
CLARINDA *     SUNNY     43  19  39 CALM      30.18
COUNCIL BLFS * SUNNY     41  21  45 SE9G16    30.11F
CRESTON *      SUNNY     37  21  52 VRB6G14   30.17F WCI  33
HARLAN  *      SUNNY     39  21  48 S8        30.17F WCI  34
LAMONI         SUNNY     42  19  39 W7        30.18F
6HR MIN TEMP:  25; 6HR MAX TEMP:  42;

RED OAK *      SUNNY     41  21  45 VRB7      30.15F
SHENANDOAH *   SUNNY     43  19  39 VRB6      30.16F
$$

IAZ047>049-059>061-072>074-084-151900-
   CENTRAL IOWA

CITY           SKY/WX    TMP DP  RH WIND       PRES   REMARKS
AMES           SUNNY     35  16  45 VRB7      30.18F WCI  29
6HR MIN TEMP:  24; 6HR MAX TEMP:  35;

ANKENY *       SUNNY     37  16  41 W10G17    30.18F WCI  30
CHARITON *     PTSUNNY   39  23  52 NW10      30.18F WCI  32
DES MOINES     MOSUNNY   38  16  40 CALM      30.18F
6HR MIN TEMP:  27; 6HR MAX TEMP:  40;

GRINNELL*      SUNNY     36  21  55 NW12G17   30.18F WCI  27
KNOXVILLE *    MOSUNNY   37  18  44 NW12      30.18F WCI  30
MARSHALLTOWN   SUNNY     32  14  47 NW7G18    30.17F WCI  26
6HR MIN TEMP:  23; 6HR MAX TEMP:  33;

NEWTON *       SUNNY     36  19  51 W9G17     30.19F WCI  29
PELLA *        MOSUNNY   37  19  48 NW9G17    30.20F WCI  31
PERRY *          N/A     37  21  52 SW3       30.18F
$$

IAZ004>006-015-016-023>025-035-036-151900-
   NORTH CENTRAL IOWA

CITY           SKY/WX    TMP DP  RH WIND       PRES   REMARKS
ALGONA *       SUNNY     32  12  43 VRB5      30.14F WCI  27
CLARION *      SUNNY     32  12  43 VRB6G15   30.15F WCI  26
ESTHERVILLE      N/A     32   9  38 VRB3      30.11F
6HR MIN TEMP:  15; 6HR MAX TEMP:  33;

FORT DODGE *   SUNNY     34  16  47 NW6       30.16F WCI  29
MASON CITY     SUNNY     33   8  35 NW10G17   30.16F WCI  25
6HR MIN TEMP:  19; 6HR MAX TEMP:  33;

FOREST CITY *  SUNNY     32   9  37 SW5       30.13F WCI  27
IOWA FALLS *     N/A     34  12  40 NW9       30.17F WCI  26
$$

IAZ007>011-017>019-026>030-037>042-050>054-066-151900-
   NORTHEAST IOWA

CITY           SKY/WX    TMP DP  RH WIND       PRES   REMARKS
CEDAR RAPIDS   SUNNY     35  13  40 W9G20     30.17S WCI  28
6HR MIN TEMP:  25; 6HR MAX TEMP:  35;

CHARLES CITY * SUNNY     30  12  47 N7        30.15F WCI  23
CLINTON *      CLOUDY    36  18  48 W16       30.19S WCI  26
DECORAH *      PTSUNNY   30  12  47 NW12      30.13F WCI  21
DUBUQUE        CLOUDY    33  18  53 NW12G20   30.13F WCI  24
6HR MIN TEMP:  24; 6HR MAX TEMP:  33;

MONTICELLO *   PTSUNNY   34  16  47 W13G20    30.16S WCI  25
OELWEIN *      SUNNY    N/A N/A N/A W8G16     30.16S
WATERLOO       SUNNY     33  11  39 VRB5      30.17S WCI  29
6HR MIN TEMP:  23; 6HR MAX TEMP:  34;

$$

IAZ064-065-067-068-078-151900-
   EAST CENTRAL IOWA

CITY           SKY/WX    TMP DP  RH WIND       PRES   REMARKS
DAVENPORT      SUNNY     36  16  44 NW15G21   30.17F WCI  27
6HR MIN TEMP:  25; 6HR MAX TEMP:  37;

IOWA CITY      SUNNY     37   9  31 W14       30.20S WCI  28
6HR MIN TEMP:  26; 6HR MAX TEMP:  37;

MT. PLEASANT * MOSUNNY   39  18  41 W14G20    30.20S WCI  31
MUSCATINE *    SUNNY     39  10  30 NW15G22   30.20S WCI  31
QUAD CITIES    MOSUNNY   39  17  41 W10       30.17F WCI  32
6HR MIN TEMP:  27; 6HR MAX TEMP:  39;

$$

IAZ062-063-075>077-085>089-095>099-151900-
   SOUTHEAST IOWA

CITY           SKY/WX    TMP DP  RH WIND       PRES   REMARKS
BURLINGTON     MOSUNNY   40  19  43 W13G20    30.18F WCI  32
6HR MIN TEMP:  27; 6HR MAX TEMP:  40;

FAIRFIELD *    MOSUNNY   37  19  48 W13       30.19F WCI  29
FORT MADISON * PTSUNNY   39  25  56 W14G20    30.20F WCI  31
KEOKUK *       PTSUNNY   41  19  42 W16       30.19F
OSKALOOSA *      N/A     38  21  50 NW10G17   30.19F WCI  30
CENTERVILLE *  SUNNY     39  19  45 W7G17     30.20F WCI  34
OTTUMWA        MOSUNNY   39  17  41 W12G21    30.19F WCI  32
6HR MIN TEMP:  26; 6HR MAX TEMP:  39;

WASHINGTON *   SUNNY     37  18  44 W20G26    30.20S WCI  27
$$

ABBREVIATIONS USED IN REMARKS
   TC - TEMPERATURES IN CELSIUS
  WCI - WIND CHILL INDEX
   HX - HEAT INDEX
  VSB - VISIBILITY
$$




USA.gov is the U.S. government's official web portal to all federal, state and local government web resources and services.